This is the latest recevied weather packets stored in our database for station/object W8KVG. If no packets are shown the sender has not sent any weather packets the latest 10 day(s).
| Time | Temp. | Humidity | Pressure | Rain* | Wind** | Luminosity | Snow |
|---|---|---|---|---|---|---|---|
| 1777992121 | 20.56° C | 61% | 1007.1 hPa | 0 mm | - | 126 W/m² | - |
| 1777991817 | 20° C | 61% | 1007.2 hPa | 0 mm | - | 138 W/m² | - |
| 1777991515 | 20° C | 61% | 1007.1 hPa | 0 mm | - | 118 W/m² | - |
| 1777991211 | 20.56° C | 60% | 1007.2 hPa | 0 mm | - | 131 W/m² | - |
| 1777990909 | 20.56° C | 61% | 1007.4 hPa | 0 mm | - | 145 W/m² | - |
| 1777990607 | 20.56° C | 61% | 1007.4 hPa | 0 mm | - | 151 W/m² | - |
| 1777990000 | 20° C | 61% | 1007.7 hPa | 0 mm | - | 114 W/m² | - |
| 1777989697 | 20.56° C | 61% | 1007.6 hPa | 0 mm | - | 125 W/m² | - |
| 1777989393 | 20° C | 61% | 1007.6 hPa | 0 mm | - | 127 W/m² | - |
| 1777989089 | 20° C | 61% | 1007.7 hPa | 0 mm | - | 125 W/m² | - |
| 1777988785 | 20° C | 62% | 1007.7 hPa | 0 mm | - | 124 W/m² | - |
| 1777988483 | 20° C | 63% | 1007.5 hPa | 0 mm | - | 121 W/m² | - |
| 1777988180 | 20° C | 62% | 1007.6 hPa | 0 mm | - | 115 W/m² | - |
| 1777987875 | 20° C | 61% | 1007.5 hPa | 0 mm | - | 115 W/m² | - |
| 1777987572 | 20° C | 61% | 1007.5 hPa | 0 mm | - | 120 W/m² | - |
| 1777987270 | 20° C | 61% | 1007.6 hPa | 0 mm | - | 100 W/m² | - |
| 1777986966 | 20° C | 63% | 1007.6 hPa | 0 mm | - | 133 W/m² | - |
| 1777986664 | 20° C | 63% | 1007.7 hPa | 0 mm | - | 115 W/m² | - |
| 1777986362 | 20° C | 61% | 1007.5 hPa | 0 mm | - | 118 W/m² | - |
| 1777986060 | 20° C | 63% | 1007.7 hPa | 0 mm | - | 100 W/m² | - |
| 1777985756 | 19.44° C | 64% | 1007.6 hPa | 0 mm | - | 94 W/m² | - |
| 1777985453 | 19.44° C | 64% | 1007.7 hPa | 0 mm | - | 71 W/m² | - |
| 1777985150 | 19.44° C | 65% | 1007.7 hPa | 0 mm | - | 80 W/m² | - |
| 1777984846 | 19.44° C | 65% | 1007.8 hPa | 0 mm | - | 75 W/m² | - |
| 1777984543 | 18.89° C | 66% | 1007.6 hPa | 0 mm | - | 68 W/m² | - |
* Rain latest hour (hover to see other rain measurements)
** Current wind speed in m/s (hover to see current wind gust speed)